GJOHN EGPT-EGPJ

Flight info

Callsign GJOHN
Flight time 0h 28m
Altitude 1500
Route SCONE PERTH GLENFARG KINROSS SCOTLANDWELL FIFE
Aircraft C182/L-VGDW/C

Departure

Time 2026-05-04 13:32
Airport Perth/Scone Airport (EGPT)

Arrival

Time 2026-05-04 14:01
Airport Fife Airport (EGPJ)
Time Latitude Longitude Altitude Speed Heading
2026-05-04 13:27 56.43666 -3.37215 401 ft 0 kts 80°
2026-05-04 13:28 56.43666 -3.37214 401 ft 0 kts 80°
2026-05-04 13:29 56.43678 -3.37194 401 ft 5 kts 354°
2026-05-04 13:30 56.43708 -3.37185 401 ft 4 kts 63°
2026-05-04 13:30 56.43708 -3.37103 401 ft 8 kts 95°
2026-05-04 13:30 56.43754 -3.37076 401 ft 7 kts 20°
2026-05-04 13:30 56.43772 -3.36953 401 ft 18 kts 90°
2026-05-04 13:31 56.43788 -3.36758 401 ft 7 kts 65°
2026-05-04 13:31 56.43775 -3.36761 401 ft 8 kts 276°
2026-05-04 13:31 56.43774 -3.36801 401 ft 2 kts 268°
2026-05-04 13:31 56.43767 -3.37225 401 ft 60 kts 266°
2026-05-04 13:32 56.43759 -3.38115 560 ft 75 kts 266°
2026-05-04 13:32 56.43740 -3.39000 867 ft 70 kts 269°
2026-05-04 13:32 56.43982 -3.39813 1066 ft 83 kts 311°
2026-05-04 13:32 56.44584 -3.40048 1216 ft 95 kts 352°
2026-05-04 13:33 56.45237 -3.39993 1276 ft 95 kts 354°
2026-05-04 13:33 56.45888 -3.39927 1286 ft 92 kts 354°
2026-05-04 13:33 56.46503 -3.39547 1269 ft 98 kts 30°
2026-05-04 13:33 56.46789 -3.38458 1281 ft 98 kts 84°
2026-05-04 13:34 56.46820 -3.37233 1281 ft 99 kts 86°
2026-05-04 13:34 56.46585 -3.36142 1311 ft 92 kts 143°
2026-05-04 13:34 56.46019 -3.35769 1363 ft 85 kts 174°
2026-05-04 13:34 56.45445 -3.35525 1415 ft 85 kts 173°
2026-05-04 13:35 56.44866 -3.35278 1471 ft 87 kts 175°
2026-05-04 13:35 56.43592 -3.34748 1512 ft 102 kts 174°
2026-05-04 13:35 56.43188 -3.34581 1510 ft 106 kts 174°
2026-05-04 13:36 56.43109 -3.34553 1509 ft 107 kts 176°
2026-05-04 13:36 56.42457 -3.34802 1498 ft 103 kts 221°
2026-05-04 13:36 56.42027 -3.35820 1508 ft 103 kts 240°
2026-05-04 13:36 56.41630 -3.36886 1510 ft 102 kts 239°
2026-05-04 13:37 56.41207 -3.37924 1506 ft 103 kts 237°
2026-05-04 13:37 56.40753 -3.38924 1504 ft 103 kts 235°
2026-05-04 13:37 56.40237 -3.39830 1503 ft 105 kts 224°
2026-05-04 13:37 56.39820 -3.40315 1503 ft 106 kts 216°
2026-05-04 13:38 56.38941 -3.41064 1503 ft 106 kts 210°
2026-05-04 13:38 56.38340 -3.41510 1502 ft 107 kts 209°
2026-05-04 13:38 56.37615 -3.42029 1503 ft 105 kts 209°
2026-05-04 13:38 56.36878 -3.42254 1499 ft 110 kts 185°
2026-05-04 13:39 56.36117 -3.42094 1503 ft 110 kts 180°
2026-05-04 13:39 56.35364 -3.41888 1503 ft 109 kts 179°
2026-05-04 13:39 56.34619 -3.41677 1504 ft 108 kts 179°
2026-05-04 13:39 56.33879 -3.41468 1508 ft 109 kts 179°
2026-05-04 13:40 56.33120 -3.41254 1507 ft 112 kts 179°
2026-05-04 13:40 56.32350 -3.41036 1508 ft 113 kts 179°
2026-05-04 13:40 56.31575 -3.40815 1506 ft 113 kts 178°
2026-05-04 13:40 56.30806 -3.40594 1508 ft 111 kts 178°
2026-05-04 13:41 56.30056 -3.40380 1503 ft 108 kts 178°
2026-05-04 13:41 56.29330 -3.40173 1506 ft 105 kts 179°
2026-05-04 13:41 56.28609 -3.39970 1503 ft 104 kts 179°
2026-05-04 13:42 56.27242 -3.40219 1506 ft 99 kts 201°
2026-05-04 13:42 56.26584 -3.40525 1500 ft 96 kts 202°
2026-05-04 13:42 56.25947 -3.40831 1495 ft 95 kts 202°
2026-05-04 13:42 56.25302 -3.41149 1499 ft 97 kts 202°
2026-05-04 13:43 56.24657 -3.41465 1503 ft 98 kts 202°
2026-05-04 13:43 56.23998 -3.41789 1504 ft 99 kts 202°
2026-05-04 13:43 56.23339 -3.42114 1506 ft 99 kts 202°
2026-05-04 13:43 56.22677 -3.42439 1507 ft 99 kts 202°
2026-05-04 13:44 56.22010 -3.42767 1507 ft 100 kts 202°
2026-05-04 13:44 56.21340 -3.43097 1507 ft 100 kts 202°
2026-05-04 13:44 56.20638 -3.43017 1498 ft 110 kts 160°
2026-05-04 13:44 56.20171 -3.41900 1499 ft 120 kts 107°
2026-05-04 13:45 56.20119 -3.40390 1509 ft 123 kts 92°
2026-05-04 13:45 56.20017 -3.38834 1509 ft 125 kts 101°
2026-05-04 13:45 56.19813 -3.37312 1507 ft 126 kts 107°
2026-05-04 13:45 56.19561 -3.35801 1503 ft 125 kts 109°
2026-05-04 13:46 56.19299 -3.34335 1502 ft 123 kts 110°
2026-05-04 13:46 56.19091 -3.32845 1500 ft 124 kts 102°
2026-05-04 13:46 56.18960 -3.31318 1499 ft 124 kts 98°
2026-05-04 13:46 56.18849 -3.29781 1497 ft 124 kts 97°
2026-05-04 13:47 56.18746 -3.28258 1498 ft 123 kts 97°
2026-05-04 13:47 56.18644 -3.26729 1501 ft 122 kts 97°
2026-05-04 13:47 56.18480 -3.25286 1508 ft 115 kts 109°
2026-05-04 13:47 56.18184 -3.24014 1482 ft 106 kts 123°
2026-05-04 13:48 56.17744 -3.23002 1447 ft 102 kts 145°
2026-05-04 13:48 56.17175 -3.22284 1403 ft 98 kts 155°
2026-05-04 13:48 56.16592 -3.21665 1324 ft 97 kts 154°
2026-05-04 13:48 56.16250 -3.21111 1277 ft 100 kts 134°
2026-05-04 13:49 56.15996 -3.19947 1206 ft 102 kts 98°
2026-05-04 13:49 56.16041 -3.18720 1152 ft 97 kts 80°
2026-05-04 13:49 56.16158 -3.17518 1089 ft 98 kts 79°
2026-05-04 13:49 56.16267 -3.16317 1056 ft 98 kts 79°
2026-05-04 13:50 56.16491 -3.15166 1009 ft 97 kts 54°
2026-05-04 13:50 56.16972 -3.14478 999 ft 84 kts
2026-05-04 13:50 56.17501 -3.14424 1018 ft 72 kts 343°
2026-05-04 13:50 56.17992 -3.14509 1044 ft 70 kts 342°
2026-05-04 13:51 56.18493 -3.14653 1072 ft 74 kts 333°
2026-05-04 13:51 56.18931 -3.15061 1078 ft 69 kts 314°
2026-05-04 13:51 56.19224 -3.15701 1009 ft 64 kts 296°
2026-05-04 13:51 56.19374 -3.16406 975 ft 58 kts 278°
2026-05-04 13:52 56.19377 -3.17914 862 ft 62 kts 262°
2026-05-04 13:52 56.19273 -3.18668 777 ft 63 kts 255°
2026-05-04 13:52 56.19114 -3.19397 706 ft 62 kts 250°
2026-05-04 13:53 56.18925 -3.20100 613 ft 62 kts 245°
2026-05-04 13:53 56.18724 -3.20756 501 ft 58 kts 243°
2026-05-04 13:53 56.18529 -3.21376 421 ft 57 kts 241°
2026-05-04 13:54 56.18111 -3.22796 688 ft 73 kts 248°
2026-05-04 13:54 56.17924 -3.23663 948 ft 79 kts 251°
2026-05-04 13:54 56.17034 -3.24826 1104 ft 94 kts 186°
2026-05-04 13:55 56.16428 -3.24363 1102 ft 97 kts 152°
2026-05-04 13:55 56.15614 -3.22560 1056 ft 100 kts 97°
2026-05-04 13:55 56.15677 -3.21300 996 ft 102 kts 81°
2026-05-04 13:56 56.15758 -3.20078 978 ft 94 kts 81°
2026-05-04 13:56 56.15820 -3.18937 952 ft 91 kts 82°
2026-05-04 13:56 56.15963 -3.16641 927 ft 95 kts 82°
2026-05-04 13:57 56.16028 -3.15467 944 ft 94 kts 84°
2026-05-04 13:57 56.16215 -3.14340 949 ft 93 kts 53°
2026-05-04 13:58 56.17761 -3.14250 994 ft 77 kts 333°
2026-05-04 13:58 56.18773 -3.14805 1030 ft 75 kts 325°
2026-05-04 13:58 56.19119 -3.15430 1033 ft 69 kts 292°
2026-05-04 13:59 56.19263 -3.16214 1002 ft 64 kts 280°
2026-05-04 13:59 56.19329 -3.16992 925 ft 63 kts 273°
2026-05-04 13:59 56.19292 -3.18523 776 ft 62 kts 257°
2026-05-04 14:00 56.19164 -3.19264 712 ft 62 kts 250°
2026-05-04 14:00 56.18774 -3.20589 519 ft 60 kts 244°
2026-05-04 14:00 56.18572 -3.21239 432 ft 58 kts 244°
2026-05-04 14:01 56.18385 -3.21839 403 ft 49 kts 244°
2026-05-04 14:01 56.18246 -3.22297 403 ft 33 kts 243°
2026-05-04 14:01 56.18147 -3.22479 403 ft 5 kts 152°
2026-05-04 14:02 56.18152 -3.22406 403 ft 13 kts 60°
2026-05-04 14:02 56.18205 -3.22228 403 ft 15 kts 62°
2026-05-04 14:02 56.18246 -3.22096 403 ft 8 kts 62°
2026-05-04 14:02 56.18278 -3.22099 403 ft 6 kts 335°
2026-05-04 14:03 56.18315 -3.22063 403 ft 13 kts 61°
2026-05-04 14:03 56.18370 -3.21887 403 ft 14 kts 60°
2026-05-04 14:03 56.18409 -3.21835 403 ft 7 kts 332°
2026-05-04 14:03 56.18455 -3.21857 403 ft 7 kts 38°
2026-05-04 14:04 56.18469 -3.21787 403 ft 0 kts 173°